WIII

Jakarta/Soekarno-Hatta International Airport

Airport
ICAO code
WIII
IATA Code
CGK
Summary
ICAO Region
APAC
ICAO Territory
Location

Tangerang, Banten

Serving
Jakarta
Elevation
32 ft
Coordinates
6° 7' 37" S , 106° 39' 15" E
KCC
Metar
WIII 282130Z VRB04KT 5000 -TSRA FEW016CB BKN018 26/26 Q1008 NOSIG RMK CB TO N AND E

The principal international airport serving the Jakarta region.

Climatology

Tropical Savanna climate (Köppen climate classification Aw) - monthly mean temperature above 18°C in every month of the year and a pronounced dry season.

Airport map

Aerial View

Airport accidents

SKYbrary Partners:

Safety knowledge contributed by: